Regional Weather Roundup
Issued by NWS

Home | Current Version | Previous Version | Text Only | Print | Product List | Glossary Off
Versions: 1 2 3 4 5 6 7 8 9 10 11 12 13 14 15 16 17 18 19 20 21 22 23 24 25 26 27 28 29 30 31 32 33 34 35 36 37 38 39 40 41 42 43 44 45 46 47 48 49 50

000
ASUS43 KDTX 031501
RWRMI
MICHIGAN HOURLY REGIONAL WEATHER ROUNDUP
NATIONAL WEATHER SERVICE DETROIT/PONTIAC MI
1100 AM EDT SUN MAY 03 2015

NOTE: "FAIR" INDICATES FEW OR NO CLOUDS BELOW 12,000 FEET WITH NO
SIGNIFICANT WEATHER AND/OR OBSTRUCTION TO VISIBILITY.

MIZ047>049-052>055-059>063-066>070-074>076-081>083-031600-
SOUTHEAST LOWER MICHIGAN

CITY           SKY/WX    TMP DP  RH WIND       PRES   REMARKS
ADRIAN         SUNNY     71  43  36 W8        30.07F
ALMA           SUNNY     72  42  33 SW8       30.01S
ANN ARBOR      SUNNY     74  42  31 SW15      30.06S
BAD AXE        MOSUNNY   70  39  32 W12       30.02R
CARO           SUNNY     73  44  35 CALM      30.01F
DETROIT CITY   SUNNY     73  41  31 W9        30.06S
DETROIT        SUNNY     75  43  31 SW13      30.07S
FLINT          SUNNY     74  43  32 SW15      30.03F
HILLSDALE      SUNNY     73  40  30 SW8       30.06F
HOWELL         SUNNY     73  41  31 SW9       30.04F

CITY           SKY/WX    TMP DP  RH WIND       PRES   REMARKS
JACKSON        SUNNY     71  43  36 SW14      30.04F
LAMBERTVILLE   SUNNY     72  43  35 W8        30.08S
LANSING        SUNNY     72  43  35 SW16      30.03F
LAPEER         FAIR      72  40  31 W12       30.03F
MASON          SUNNY     72  42  33 S8        30.04S
MT. CLEMENS    SUNNY     74  43  32 W9        30.03S
PONTIAC        MOSUNNY   72  41  32 W9        30.04S
PORT HOPE        N/A     73  41  31 VRB5G16   29.98S
PORT HURON     SUNNY     72  45  37 W6        30.04S
TRI CITIES     MOSUNNY   72  43  35 SW12      30.01S
MIDLAND        FAIR      73  41  31 W7        29.99F
TROY           SUNNY     75  39  27 W10       30.06S
SAGINAW HB     SUNNY     72  41  33 SW9       30.00S
$$
MIZ043>046-050>051-056>058-064>065-071>073-077>080-031600-
SOUTHWEST LOWER MICHIGAN

CITY           SKY/WX    TMP DP  RH WIND       PRES   REMARKS
BATTLE CREEK   SUNNY     71  45  39 SW12      30.04F
BENTON HARBOR  CLOUDY    70  47  43 S8        30.00F
BIG RAPIDS     CLOUDY    71  38  31 SW7       29.97F
COLDWATER      SUNNY     70  42  35 S8G16     30.05S
FREMONT        FAIR      70  37  30 S9        29.98S
HOLLAND        MOSUNNY   70  46  42 SW12      30.01S
GRAND RAPIDS   MOSUNNY   72  44  36 S12       30.01S
IONIA          FAIR      73  40  30 SW18      30.00F
KALAMAZOO      SUNNY     73  46  38 S10G18    30.03F
LUDINGTON      CLOUDY    68  44  40 SW13      29.95S
MARSHALL       SUNNY     71  45  39 MISG      30.04S
MOUNT PLEASANT SUNNY     73  42  32 S7        29.99S
MUSKEGON       CLOUDY    63  41  44 S15       30.00R
SOUTH HAVEN    CLOUDY    72  37  27 SW13      30.01S
$$
MIZ016>042-031600-
NORTHERN LOWER MICHIGAN

CITY           SKY/WX    TMP DP  RH WIND       PRES   REMARKS
ALPENA         SUNNY     76  41  28 SW10      29.93F
BEAVER ISLAND  SUNNY     66  46  49 S14G21    29.89S
BELLAIRE       SUNNY     72  46  40 SW12G18   29.92F
CADILLAC       PTSUNNY   70  47  43 S15G22    29.96S
CHARLEVOIX     SUNNY     70  48  45 SW9       29.94R
FRANKFORT      PTSUNNY   68  43  40 S12G20    29.93S
GAYLORD        SUNNY     72  43  35 SW13      29.94F
GRAYLING       MOSUNNY   72  42  33 SW7       29.95F
HARBOR SPRINGS SUNNY     69  46  44 SW7       29.91S
HOUGHTON LAKE  MOSUNNY   70  44  39 SW9       29.97F
MANISTEE       PTSUNNY   68  46  45 SW10G17   29.95S
OSCODA         MOSUNNY   76  41  28 SW15G22   29.96S
PELLSTON       SUNNY     72  46  39 SW15      29.90F
ROGERS CITY    SUNNY     76  44  31 SW14G24   29.92S
TRAVERSE CITY  MOSUNNY   73  49  42 SW9G20    29.92F
$$
MIZ007>008-015-031600-
EASTERN UPPER MICHIGAN

CITY           SKY/WX    TMP DP  RH WIND       PRES   REMARKS
KINROSS        SUNNY     70  46  43 S6G16     29.88S
MACKINAC ISLAN MOSUNNY   67  47  48 SW8       29.89S
NEWBERRY       SUNNY     63  45  52 S14G20    29.86S
S. S. MARIE    SUNNY     65  44  46 E6        29.87F
MUNISING         N/A     72  48  42 SW10G23   29.79S
$$
MIZ004>006-011>014-085-031600-
CENTRAL UPPER MICHIGAN

CITY           SKY/WX    TMP DP  RH WIND       PRES   REMARKS
MANISTIQUE     SUNNY     49  38  68 S14       29.86F
ESCANABA       SUNNY     61  46  59 S12       29.84R
MENOMINEE      SUNNY     70  50  49 SW10G16   29.85F
SAWYER-GWINN   SUNNY     70  50  49 SW13      29.82R
$$
MIZ001>003-009>011-084-031600-
WESTERN UPPER MICHIGAN

CITY           SKY/WX    TMP DP  RH WIND       PRES   REMARKS
IRON MOUNTAIN  SUNNY     70  49  47 SW10G21   29.81F
HOUGHTON       LGT RAIN  60  54  80 S7        29.74F
COPPER HARBOR    N/A     60  53  77 SW9       29.72F
IRONWOOD       MOSUNNY   66  52  59 SW9       29.73R
$$

ABBREVIATIONS USED IN REMARKS
   TC - TEMPERATURE IN CELSIUS
  WCI - WIND CHILL INDEX
   HX - HEAT INDEX
  VSB - VISIBILITY



USA.gov is the U.S. government's official web portal to all federal, state and local government web resources and services.